Location: Woodstock
(35.2731°N, 89.9823°W)
Time: 11:44:34
(UTC+00:00)

ACS3 Solar Sail - Visible Passes

Search period start: 04 October 2024 00:00
Search period end: 14 October 2024 00:00
Orbit: 963 x 1036 km, 97.4° (Epoch: 04 October)

Date Brightness Start Highest point End Pass type
(mag) Time Alt. Az. Time Alt. Az. Time Alt. Az.
04 Oct 1.8 01:57:53 72° ENE 01:57:53 72° ENE 02:04:04 10° N visible
04 Oct 4.3 03:43:04 15° W 03:43:04 15° W 03:45:36 10° NW visible
05 Oct 3.1 00:45:13 19° E 00:46:22 19° ENE 00:50:41 10° NNE visible
05 Oct 2.3 02:30:24 58° WNW 02:30:24 58° WNW 02:36:02 10° NNW visible
06 Oct 2.4 01:17:44 35° ENE 01:18:02 36° ENE 01:23:42 10° N visible
06 Oct 3.4 03:02:55 31° WNW 03:02:55 31° WNW 03:07:31 10° NNW visible
07 Oct 1.8 01:50:15 64° NE 01:50:15 64° NE 01:56:09 10° N visible
07 Oct 4.2 03:35:26 16° WNW 03:35:26 16° WNW 03:38:07 10° NW visible
08 Oct 3.2 00:37:35 17° ENE 00:38:34 18° ENE 00:42:32 10° NNE visible
08 Oct 2.3 02:22:46 60° NW 02:22:46 60° NW 02:28:11 10° NNW visible
09 Oct 2.5 01:10:06 32° ENE 01:10:11 32° ENE 01:15:41 10° N visible
09 Oct 3.3 02:55:17 33° WNW 02:55:17 33° WNW 02:59:45 10° NNW visible
10 Oct 2.0 01:42:36 57° NE 01:42:36 57° NE 01:48:12 10° N visible
10 Oct 4.2 03:27:47 17° WNW 03:27:47 17° WNW 03:30:33 10° NW visible
11 Oct 3.3 00:29:56 15° ENE 00:30:45 16° ENE 00:34:17 10° NNE visible
11 Oct 2.2 02:15:07 60° NW 02:15:07 60° NW 02:20:17 10° NNW visible
12 Oct 2.7 01:02:27 29° ENE 01:02:27 29° ENE 01:07:38 10° NNE visible
12 Oct 3.2 02:47:38 34° WNW 02:47:38 34° WNW 02:51:56 10° NNW visible
13 Oct 2.1 01:34:58 50° NE 01:34:58 50° NE 01:40:14 10° N visible
13 Oct 4.1 03:20:08 19° WNW 03:20:08 19° WNW 03:22:54 10° NW visible
